Weather History for Pawtucket, RI

Change the Weather History Date:

Monday, January 14, 2013

  Actual Average Record
Temperature  
Mean Temperature 47 °F -  
Max Temperature 57 °F 30 °F 60 °F (2005)
Min Temperature 37 °F 17 °F -4 °F (2004)
Degree Days  
Heating Degree Days 18    
Moisture  
Dew Point 40 °F    
Average Humidity 70    
Maximum Humidity 94    
Minimum Humidity 38    
Precipitation  
Precipitation 0.00 in - - ()
Sea Level Pressure  
Sea Level Pressure 30.05 in    
Wind  
Wind Speed 7 mph (West)    
Max Wind Speed 15 mph    
Max Gust Speed 26 mph    
Visibility 8 miles    
Events      
Averages and records for this station are not official NWS values.
T = Trace of Precipitation, MM = Missing Value Source: NWS Daily Summary

Daily Weather History Graph

Daily Weather History Graph

Search for Another Location

Airport:

Trip Planner

Search our weather history database for the weather conditions in past years. The results will help you decide how hot, cold, wet, or windy it might be!

Date:

Astronomy

Jan. 14, 2013 Rise Set
Actual Time 7:11 AM EST 4:39 PM EST
Civil Twilight 6:40 AM EST 5:09 PM EST
Nautical Twilight 6:06 AM EST 5:44 PM EST
Astronomical Twilight 5:32 AM EST 6:17 PM EST
Moon 8:39 AM EST (1/14) 8:25 PM EST (1/14)
Length of Visible Light 10h 29m
Length of Day
9h 27m
Waxing Crescent, 11% of the Moon is Illuminated
Jan 14
Waxing Crescent
Jan 18
First Quarter
Jan 26
Full
Feb 3
Last Quarter
Feb 10
New

Hourly Weather History & Observations

Time (EST) Temp. Windchill Dew Point Humidity Pressure Visibility Wind Dir Wind Speed Gust Speed Precip Events Conditions
12:35 AM 48.2 °F - 46.4 °F 93% 30.00 in 1.2 mi SSW 5.8 mph - N/A   Overcast
12:55 AM 48.2 °F - 46.4 °F 93% 29.99 in 0.8 mi SW 4.6 mph - N/A   Overcast
1:35 AM 50.0 °F - 46.4 °F 87% 29.99 in 0.5 mi SSW 4.6 mph - N/A   Overcast
1:55 AM 50.0 °F - 48.2 °F 94% 30.00 in 0.8 mi SSW 5.8 mph - N/A   Overcast
2:15 AM 50.0 °F - 48.2 °F 94% 30.00 in 0.8 mi SSW 5.8 mph - N/A   Overcast
2:35 AM 50.0 °F - 48.2 °F 94% 30.00 in 1.2 mi SSW 4.6 mph - N/A   Overcast
2:55 AM 50.0 °F - 48.2 °F 94% 29.99 in 3.0 mi SW 4.6 mph - N/A   Overcast
3:15 AM 50.0 °F - 48.2 °F 94% 29.98 in 5.0 mi SSW 5.8 mph - N/A   Overcast
3:55 AM 50.0 °F - 46.4 °F 87% 29.97 in 8.0 mi SW 9.2 mph - N/A   Overcast
4:35 AM 50.0 °F - 46.4 °F 87% 29.96 in 7.0 mi SW 4.6 mph - N/A   Overcast
5:15 AM 50.0 °F - 46.4 °F 87% 29.96 in 10.0 mi SW 4.6 mph - N/A   Overcast
5:35 AM 50.0 °F - 46.4 °F 87% 29.97 in 10.0 mi SW 3.5 mph - N/A   Overcast
6:15 AM 51.8 °F - 48.2 °F 88% 29.96 in 7.0 mi SW 5.8 mph - N/A   Overcast
6:35 AM 51.8 °F - 48.2 °F 88% 29.96 in 5.0 mi SSW 6.9 mph - N/A   Overcast
6:55 AM 51.8 °F - 48.2 °F 88% 29.95 in 5.0 mi South 6.9 mph - N/A   Overcast
7:15 AM 51.8 °F - 48.2 °F 88% 29.93 in 7.0 mi SSW 6.9 mph - N/A   Overcast
7:35 AM 51.8 °F - 48.2 °F 88% 29.92 in 3.0 mi SW 6.9 mph - N/A   Overcast
7:55 AM 51.8 °F - 48.2 °F 88% 29.91 in 4.0 mi SSW 6.9 mph - N/A   Overcast
8:35 AM 51.8 °F - 50.0 °F 94% 29.97 in 10.0 mi SW 5.8 mph - N/A   Overcast
8:55 AM 53.6 °F - 50.0 °F 88% 29.97 in 10.0 mi SW 9.2 mph 17.3 mph N/A   Overcast
9:15 AM 53.6 °F - 50.0 °F 88% 29.98 in 10.0 mi SW 10.4 mph 19.6 mph N/A   Overcast
9:35 AM 53.6 °F - 50.0 °F 88% 30.00 in 10.0 mi WSW 6.9 mph - N/A   Overcast
9:55 AM 53.6 °F - 50.0 °F 88% 30.00 in 10.0 mi WSW 8.1 mph - N/A   Overcast
10:15 AM 53.6 °F - 50.0 °F 88% 30.01 in 10.0 mi West 9.2 mph - N/A   Overcast
10:35 AM 53.6 °F - 50.0 °F 88% 30.01 in 10.0 mi West 10.4 mph 16.1 mph N/A   Overcast
11:15 AM 53.6 °F - 48.2 °F 82% 30.02 in 10.0 mi WNW 11.5 mph 21.9 mph N/A   Overcast
11:35 AM 53.6 °F - 48.2 °F 82% 30.01 in 10.0 mi West 4.6 mph - N/A   Overcast
11:55 AM 55.4 °F - 48.2 °F 77% 30.00 in 10.0 mi West 4.6 mph - N/A   Scattered Clouds
12:15 PM 55.4 °F - 48.2 °F 77% 30.00 in 10.0 mi West 6.9 mph - N/A   Clear
12:35 PM 55.4 °F - 48.2 °F 77% 29.99 in 10.0 mi West 5.8 mph - N/A   Clear
12:55 PM 57.2 °F - 46.4 °F 67% 30.00 in 10.0 mi West 10.4 mph 16.1 mph N/A   Clear
1:15 PM 57.2 °F - 46.4 °F 67% 30.00 in 10.0 mi WNW 10.4 mph 16.1 mph N/A   Clear
1:55 PM 57.2 °F - 42.8 °F 59% 30.03 in 10.0 mi WNW 12.7 mph 19.6 mph N/A   Clear
2:15 PM 57.2 °F - 41.0 °F 55% 30.04 in 10.0 mi NW 11.5 mph 19.6 mph N/A   Clear
2:35 PM 55.4 °F - 33.8 °F 44% 30.06 in 10.0 mi WNW 13.8 mph 26.5 mph N/A   Mostly Cloudy
2:55 PM 55.4 °F - 30.2 °F 38% 30.06 in 10.0 mi West 13.8 mph 20.7 mph N/A   Overcast
3:15 PM 53.6 °F - 30.2 °F 41% 30.07 in 10.0 mi WNW 15.0 mph 19.6 mph N/A   Mostly Cloudy
3:35 PM 53.6 °F - 30.2 °F 41% 30.09 in 10.0 mi West 10.4 mph - N/A   Clear
3:55 PM 51.8 °F - 30.2 °F 44% 30.10 in 10.0 mi WNW 8.1 mph - N/A   Clear
4:35 PM 50.0 °F - 30.2 °F 47% 30.10 in 10.0 mi WNW 8.1 mph - N/A   Clear
4:55 PM 48.2 °F - 30.2 °F 50% 30.12 in 10.0 mi WNW 8.1 mph - N/A   Clear
5:15 PM 48.2 °F - 28.4 °F 46% 30.12 in 10.0 mi WNW 9.2 mph - N/A   Clear
5:35 PM 48.2 °F - 26.6 °F 43% 30.12 in 10.0 mi NW 5.8 mph - N/A   Clear
5:55 PM 46.4 °F 43.5 °F 28.4 °F 50% 30.11 in 10.0 mi NW 5.8 mph - N/A   Clear
6:15 PM 46.4 °F 43.5 °F 26.6 °F 46% 30.12 in 10.0 mi NW 5.8 mph - N/A   Partly Cloudy
6:55 PM 44.6 °F 40.7 °F 26.6 °F 49% 30.13 in 10.0 mi WNW 6.9 mph - N/A   Clear
7:15 PM 44.6 °F 41.4 °F 26.6 °F 49% 30.14 in 10.0 mi NW 5.8 mph - N/A   Scattered Clouds
7:35 PM 44.6 °F 40.7 °F 26.6 °F 49% 30.14 in 10.0 mi NW 6.9 mph - N/A   Mostly Cloudy
8:15 PM 44.6 °F 40.2 °F 26.6 °F 49% 30.17 in 10.0 mi WNW 8.1 mph - N/A   Overcast
8:35 PM 44.6 °F 38.8 °F 26.6 °F 49% 30.19 in 10.0 mi NW 11.5 mph - N/A   Overcast
9:15 PM 42.8 °F 37.5 °F 26.6 °F 53% 30.19 in 10.0 mi NW 9.2 mph - N/A   Overcast
9:35 PM 42.8 °F 37.0 °F 26.6 °F 53% 30.20 in 10.0 mi NW 10.4 mph - N/A   Overcast
9:55 PM 42.8 °F 36.6 °F 26.6 °F 53% 30.18 in 10.0 mi NNW 11.5 mph - N/A   Mostly Cloudy
10:15 PM 42.8 °F 38.0 °F 26.6 °F 53% 30.19 in 10.0 mi NW 8.1 mph - N/A   Mostly Cloudy
10:35 PM 41.0 °F 34.7 °F 26.6 °F 57% 30.23 in 10.0 mi West 10.4 mph 16.1 mph N/A   Mostly Cloudy
10:55 PM 39.2 °F 32.5 °F 28.4 °F 65% 30.22 in 10.0 mi NW 10.4 mph - N/A   Mostly Cloudy
11:35 PM 37.4 °F 31.4 °F 28.4 °F 70% 30.24 in 10.0 mi WNW 8.1 mph - N/A   Clear
11:55 PM 37.4 °F 32.1 °F 26.6 °F 65% 30.23 in 10.0 mi NW 6.9 mph - N/A   Partly Cloudy